Date_Time,Julian_Date,Latitude,Longitude,Instrument_Depth,Water_Temperature
(yyyy-mm-dd hh:mn:ss UTC),(JD),(+ deg. North),(+ deg. East),(m),(deg. C)
1981-12-16 19:00:00 UTC,2444955.291667,28.7317,-95.2428,0036,19.2000
1981-12-16 19:30:00 UTC,2444955.312500,28.7317,-95.2428,0036,19.2000
1981-12-16 20:00:00 UTC,2444955.333333,28.7317,-95.2428,0036,19.2000
1981-12-16 20:30:00 UTC,2444955.354167,28.7317,-95.2428,0036,19.2000
1981-12-16 21:00:00 UTC,2444955.375000,28.7317,-95.2428,0036,19.2000
1981-12-16 21:30:00 UTC,2444955.395833,28.7317,-95.2428,0036,19.2000
1981-12-16 22:00:00 UTC,2444955.416667,28.7317,-95.2428,0036,19.2000
1981-12-16 22:30:00 UTC,2444955.437500,28.7317,-95.2428,0036,19.2000
1981-12-16 23:00:00 UTC,2444955.458333,28.7317,-95.2428,0036,19.2000
1981-12-16 23:30:00 UTC,2444955.479167,28.7317,-95.2428,0036,19.2000
1981-12-17 00:00:00 UTC,2444955.500000,28.7317,-95.2428,0036,19.2000
1981-12-17 00:30:00 UTC,2444955.520833,28.7317,-95.2428,0036,19.2000
1981-12-17 01:00:00 UTC,2444955.541667,28.7317,-95.2428,0036,19.2000
1981-12-17 01:30:00 UTC,2444955.562500,28.7317,-95.2428,0036,19.2000
1981-12-17 02:00:00 UTC,2444955.583333,28.7317,-95.2428,0036,19.2000
1981-12-17 02:30:00 UTC,2444955.604167,28.7317,-95.2428,0036,19.2000
1981-12-17 03:00:00 UTC,2444955.625000,28.7317,-95.2428,0036,19.1000
1981-12-17 03:30:00 UTC,2444955.645833,28.7317,-95.2428,0036,19.0000
1981-12-17 04:00:00 UTC,2444955.666667,28.7317,-95.2428,0036,19.1000
1981-12-17 04:30:00 UTC,2444955.687500,28.7317,-95.2428,0036,19.1000
1981-12-17 05:00:00 UTC,2444955.708333,28.7317,-95.2428,0036,19.0000
1981-12-17 05:30:00 UTC,2444955.729167,28.7317,-95.2428,0036,18.8000
1981-12-17 06:00:00 UTC,2444955.750000,28.7317,-95.2428,0036,18.8000
1981-12-17 06:30:00 UTC,2444955.770833,28.7317,-95.2428,0036,18.7000
1981-12-17 07:00:00 UTC,2444955.791667,28.7317,-95.2428,0036,18.6000
1981-12-17 07:30:00 UTC,2444955.812500,28.7317,-95.2428,0036,18.5000
1981-12-17 08:00:00 UTC,2444955.833333,28.7317,-95.2428,0036,18.5000
1981-12-17 08:30:00 UTC,2444955.854167,28.7317,-95.2428,0036,18.5000
1981-12-17 09:00:00 UTC,2444955.875000,28.7317,-95.2428,0036,18.5000
1981-12-17 09:30:00 UTC,2444955.895833,28.7317,-95.2428,0036,18.5000
1981-12-17 10:00:00 UTC,2444955.916667,28.7317,-95.2428,0036,18.5000
1981-12-17 10:30:00 UTC,2444955.937500,28.7317,-95.2428,0036,18.5000
1981-12-17 11:00:00 UTC,2444955.958333,28.7317,-95.2428,0036,18.5000
1981-12-17 11:30:00 UTC,2444955.979167,28.7317,-95.2428,0036,18.5000
1981-12-17 12:00:00 UTC,2444956.000000,28.7317,-95.2428,0036,18.4000
1981-12-17 12:30:00 UTC,2444956.020833,28.7317,-95.2428,0036,18.4000
1981-12-17 13:00:00 UTC,2444956.041667,28.7317,-95.2428,0036,18.5000
1981-12-17 13:30:00 UTC,2444956.062500,28.7317,-95.2428,0036,18.5000
1981-12-17 14:00:00 UTC,2444956.083333,28.7317,-95.2428,0036,18.5000
1981-12-17 14:30:00 UTC,2444956.104167,28.7317,-95.2428,0036,18.6000
1981-12-17 15:00:00 UTC,2444956.125000,28.7317,-95.2428,0036,18.5000
1981-12-17 15:30:00 UTC,2444956.145833,28.7317,-95.2428,0036,18.4000
1981-12-17 16:00:00 UTC,2444956.166667,28.7317,-95.2428,0036,18.4000
1981-12-17 16:30:00 UTC,2444956.187500,28.7317,-95.2428,0036,18.4000
1981-12-17 17:00:00 UTC,2444956.208333,28.7317,-95.2428,0036,18.5000
1981-12-17 17:30:00 UTC,2444956.229167,28.7317,-95.2428,0036,18.5000
1981-12-17 18:00:00 UTC,2444956.250000,28.7317,-95.2428,0036,18.6000
1981-12-17 18:30:00 UTC,2444956.270833,28.7317,-95.2428,0036,18.6000
1981-12-17 19:00:00 UTC,2444956.291667,28.7317,-95.2428,0036,18.6000
1981-12-17 19:30:00 UTC,2444956.312500,28.7317,-95.2428,0036,18.6000
1981-12-17 20:00:00 UTC,2444956.333333,28.7317,-95.2428,0036,18.7000
1981-12-17 20:30:00 UTC,2444956.354167,28.7317,-95.2428,0036,18.7000
1981-12-17 21:00:00 UTC,2444956.375000,28.7317,-95.2428,0036,18.7000
1981-12-17 21:30:00 UTC,2444956.395833,28.7317,-95.2428,0036,18.8000
1981-12-17 22:00:00 UTC,2444956.416667,28.7317,-95.2428,0036,18.8000
1981-12-17 22:30:00 UTC,2444956.437500,28.7317,-95.2428,0036,18.9000
1981-12-17 23:00:00 UTC,2444956.458333,28.7317,-95.2428,0036,18.9000
1981-12-17 23:30:00 UTC,2444956.479167,28.7317,-95.2428,0036,18.9000
1981-12-18 00:00:00 UTC,2444956.500000,28.7317,-95.2428,0036,18.9000
1981-12-18 00:30:00 UTC,2444956.520833,28.7317,-95.2428,0036,18.9000
1981-12-18 01:00:00 UTC,2444956.541667,28.7317,-95.2428,0036,18.9000
1981-12-18 01:30:00 UTC,2444956.562500,28.7317,-95.2428,0036,18.9000
1981-12-18 02:00:00 UTC,2444956.583333,28.7317,-95.2428,0036,19.0000
1981-12-18 02:30:00 UTC,2444956.604167,28.7317,-95.2428,0036,19.0000
1981-12-18 03:00:00 UTC,2444956.625000,28.7317,-95.2428,0036,18.9000
1981-12-18 03:30:00 UTC,2444956.645833,28.7317,-95.2428,0036,18.9000
1981-12-18 04:00:00 UTC,2444956.666667,28.7317,-95.2428,0036,18.9000
1981-12-18 04:30:00 UTC,2444956.687500,28.7317,-95.2428,0036,18.9000
1981-12-18 05:00:00 UTC,2444956.708333,28.7317,-95.2428,0036,18.9000
1981-12-18 05:30:00 UTC,2444956.729167,28.7317,-95.2428,0036,18.9000
1981-12-18 06:00:00 UTC,2444956.750000,28.7317,-95.2428,0036,18.9000
1981-12-18 06:30:00 UTC,2444956.770833,28.7317,-95.2428,0036,18.8000
1981-12-18 07:00:00 UTC,2444956.791667,28.7317,-95.2428,0036,18.8000
1981-12-18 07:30:00 UTC,2444956.812500,28.7317,-95.2428,0036,18.8000
1981-12-18 08:00:00 UTC,2444956.833333,28.7317,-95.2428,0036,18.8000
1981-12-18 08:30:00 UTC,2444956.854167,28.7317,-95.2428,0036,18.7000
1981-12-18 09:00:00 UTC,2444956.875000,28.7317,-95.2428,0036,18.7000
1981-12-18 09:30:00 UTC,2444956.895833,28.7317,-95.2428,0036,18.7000
1981-12-18 10:00:00 UTC,2444956.916667,28.7317,-95.2428,0036,18.6000
1981-12-18 10:30:00 UTC,2444956.937500,28.7317,-95.2428,0036,18.6000
1981-12-18 11:00:00 UTC,2444956.958333,28.7317,-95.2428,0036,18.6000
1981-12-18 11:30:00 UTC,2444956.979167,28.7317,-95.2428,0036,18.5000
1981-12-18 12:00:00 UTC,2444957.000000,28.7317,-95.2428,0036,18.5000
1981-12-18 12:30:00 UTC,2444957.020833,28.7317,-95.2428,0036,18.5000
1981-12-18 13:00:00 UTC,2444957.041667,28.7317,-95.2428,0036,18.4000
1981-12-18 13:30:00 UTC,2444957.062500,28.7317,-95.2428,0036,18.4000
1981-12-18 14:00:00 UTC,2444957.083333,28.7317,-95.2428,0036,18.4000
1981-12-18 14:30:00 UTC,2444957.104167,28.7317,-95.2428,0036,18.4000
1981-12-18 15:00:00 UTC,2444957.125000,28.7317,-95.2428,0036,18.4000
1981-12-18 15:30:00 UTC,2444957.145833,28.7317,-95.2428,0036,18.4000
1981-12-18 16:00:00 UTC,2444957.166667,28.7317,-95.2428,0036,18.3000
1981-12-18 16:30:00 UTC,2444957.187500,28.7317,-95.2428,0036,18.3000
1981-12-18 17:00:00 UTC,2444957.208333,28.7317,-95.2428,0036,18.3000
1981-12-18 17:30:00 UTC,2444957.229167,28.7317,-95.2428,0036,18.3000
1981-12-18 18:00:00 UTC,2444957.250000,28.7317,-95.2428,0036,18.2000
1981-12-18 18:30:00 UTC,2444957.270833,28.7317,-95.2428,0036,18.2000
1981-12-18 19:00:00 UTC,2444957.291667,28.7317,-95.2428,0036,18.2000
1981-12-18 19:30:00 UTC,2444957.312500,28.7317,-95.2428,0036,18.2000
1981-12-18 20:00:00 UTC,2444957.333333,28.7317,-95.2428,0036,18.1000
1981-12-18 20:30:00 UTC,2444957.354167,28.7317,-95.2428,0036,18.1000
1981-12-18 21:00:00 UTC,2444957.375000,28.7317,-95.2428,0036,18.1000
1981-12-18 21:30:00 UTC,2444957.395833,28.7317,-95.2428,0036,18.1000
1981-12-18 22:00:00 UTC,2444957.416667,28.7317,-95.2428,0036,18.1000
1981-12-18 22:30:00 UTC,2444957.437500,28.7317,-95.2428,0036,18.1000
1981-12-18 23:00:00 UTC,2444957.458333,28.7317,-95.2428,0036,18.1000
1981-12-18 23:30:00 UTC,2444957.479167,28.7317,-95.2428,0036,18.1000
1981-12-19 00:00:00 UTC,2444957.500000,28.7317,-95.2428,0036,18.1000
1981-12-19 00:30:00 UTC,2444957.520833,28.7317,-95.2428,0036,18.1000
1981-12-19 01:00:00 UTC,2444957.541667,28.7317,-95.2428,0036,18.0000
1981-12-19 01:30:00 UTC,2444957.562500,28.7317,-95.2428,0036,18.0000
1981-12-19 02:00:00 UTC,2444957.583333,28.7317,-95.2428,0036,18.0000
1981-12-19 02:30:00 UTC,2444957.604167,28.7317,-95.2428,0036,18.1000
1981-12-19 03:00:00 UTC,2444957.625000,28.7317,-95.2428,0036,18.1000
1981-12-19 03:30:00 UTC,2444957.645833,28.7317,-95.2428,0036,18.0000
1981-12-19 04:00:00 UTC,2444957.666667,28.7317,-95.2428,0036,18.0000
1981-12-19 04:30:00 UTC,2444957.687500,28.7317,-95.2428,0036,18.0000
1981-12-19 05:00:00 UTC,2444957.708333,28.7317,-95.2428,0036,18.0000
1981-12-19 05:30:00 UTC,2444957.729167,28.7317,-95.2428,0036,18.0000
1981-12-19 06:00:00 UTC,2444957.750000,28.7317,-95.2428,0036,18.0000
1981-12-19 06:30:00 UTC,2444957.770833,28.7317,-95.2428,0036,18.0000
1981-12-19 07:00:00 UTC,2444957.791667,28.7317,-95.2428,0036,17.9000
1981-12-19 07:30:00 UTC,2444957.812500,28.7317,-95.2428,0036,17.9000
1981-12-19 08:00:00 UTC,2444957.833333,28.7317,-95.2428,0036,17.9000
1981-12-19 08:30:00 UTC,2444957.854167,28.7317,-95.2428,0036,17.9000
1981-12-19 09:00:00 UTC,2444957.875000,28.7317,-95.2428,0036,17.9000
1981-12-19 09:30:00 UTC,2444957.895833,28.7317,-95.2428,0036,17.9000
1981-12-19 10:00:00 UTC,2444957.916667,28.7317,-95.2428,0036,17.9000
1981-12-19 10:30:00 UTC,2444957.937500,28.7317,-95.2428,0036,17.9000
1981-12-19 11:00:00 UTC,2444957.958333,28.7317,-95.2428,0036,17.9000
1981-12-19 11:30:00 UTC,2444957.979167,28.7317,-95.2428,0036,17.8000
1981-12-19 12:00:00 UTC,2444958.000000,28.7317,-95.2428,0036,17.8000
1981-12-19 12:30:00 UTC,2444958.020833,28.7317,-95.2428,0036,17.9000
1981-12-19 13:00:00 UTC,2444958.041667,28.7317,-95.2428,0036,17.9000
1981-12-19 13:30:00 UTC,2444958.062500,28.7317,-95.2428,0036,17.9000
1981-12-19 14:00:00 UTC,2444958.083333,28.7317,-95.2428,0036,17.9000
1981-12-19 14:30:00 UTC,2444958.104167,28.7317,-95.2428,0036,17.9000
1981-12-19 15:00:00 UTC,2444958.125000,28.7317,-95.2428,0036,17.9000
1981-12-19 15:30:00 UTC,2444958.145833,28.7317,-95.2428,0036,17.9000
1981-12-19 16:00:00 UTC,2444958.166667,28.7317,-95.2428,0036,17.9000
1981-12-19 16:30:00 UTC,2444958.187500,28.7317,-95.2428,0036,17.9000
1981-12-19 17:00:00 UTC,2444958.208333,28.7317,-95.2428,0036,17.8000
1981-12-19 17:30:00 UTC,2444958.229167,28.7317,-95.2428,0036,17.7000
1981-12-19 18:00:00 UTC,2444958.250000,28.7317,-95.2428,0036,17.6000
1981-12-19 18:30:00 UTC,2444958.270833,28.7317,-95.2428,0036,17.5000
1981-12-19 19:00:00 UTC,2444958.291667,28.7317,-95.2428,0036,17.5000
1981-12-19 19:30:00 UTC,2444958.312500,28.7317,-95.2428,0036,17.5000
1981-12-19 20:00:00 UTC,2444958.333333,28.7317,-95.2428,0036,17.5000
1981-12-19 20:30:00 UTC,2444958.354167,28.7317,-95.2428,0036,17.5000
1981-12-19 21:00:00 UTC,2444958.375000,28.7317,-95.2428,0036,17.4000
1981-12-19 21:30:00 UTC,2444958.395833,28.7317,-95.2428,0036,17.4000
1981-12-19 22:00:00 UTC,2444958.416667,28.7317,-95.2428,0036,17.4000
1981-12-19 22:30:00 UTC,2444958.437500,28.7317,-95.2428,0036,17.4000
1981-12-19 23:00:00 UTC,2444958.458333,28.7317,-95.2428,0036,17.3000
1981-12-19 23:30:00 UTC,2444958.479167,28.7317,-95.2428,0036,17.3000
1981-12-20 00:00:00 UTC,2444958.500000,28.7317,-95.2428,0036,17.2000
1981-12-20 00:30:00 UTC,2444958.520833,28.7317,-95.2428,0036,17.2000
1981-12-20 01:00:00 UTC,2444958.541667,28.7317,-95.2428,0036,17.1000
1981-12-20 01:30:00 UTC,2444958.562500,28.7317,-95.2428,0036,17.1000
1981-12-20 02:00:00 UTC,2444958.583333,28.7317,-95.2428,0036,17.1000
1981-12-20 02:30:00 UTC,2444958.604167,28.7317,-95.2428,0036,17.1000
1981-12-20 03:00:00 UTC,2444958.625000,28.7317,-95.2428,0036,17.1000
1981-12-20 03:30:00 UTC,2444958.645833,28.7317,-95.2428,0036,17.1000
1981-12-20 04:00:00 UTC,2444958.666667,28.7317,-95.2428,0036,17.1000
1981-12-20 04:30:00 UTC,2444958.687500,28.7317,-95.2428,0036,17.1000
1981-12-20 05:00:00 UTC,2444958.708333,28.7317,-95.2428,0036,17.0000
1981-12-20 05:30:00 UTC,2444958.729167,28.7317,-95.2428,0036,17.0000
1981-12-20 06:00:00 UTC,2444958.750000,28.7317,-95.2428,0036,16.9000
1981-12-20 06:30:00 UTC,2444958.770833,28.7317,-95.2428,0036,16.9000
1981-12-20 07:00:00 UTC,2444958.791667,28.7317,-95.2428,0036,16.9000
1981-12-20 07:30:00 UTC,2444958.812500,28.7317,-95.2428,0036,16.9000
1981-12-20 08:00:00 UTC,2444958.833333,28.7317,-95.2428,0036,16.9000
1981-12-20 08:30:00 UTC,2444958.854167,28.7317,-95.2428,0036,16.9000
1981-12-20 09:00:00 UTC,2444958.875000,28.7317,-95.2428,0036,16.8000
1981-12-20 09:30:00 UTC,2444958.895833,28.7317,-95.2428,0036,16.8000
1981-12-20 10:00:00 UTC,2444958.916667,28.7317,-95.2428,0036,16.8000
1981-12-20 10:30:00 UTC,2444958.937500,28.7317,-95.2428,0036,16.8000
1981-12-20 11:00:00 UTC,2444958.958333,28.7317,-95.2428,0036,16.7000
1981-12-20 11:30:00 UTC,2444958.979167,28.7317,-95.2428,0036,16.7000
1981-12-20 12:00:00 UTC,2444959.000000,28.7317,-95.2428,0036,16.7000
1981-12-20 12:30:00 UTC,2444959.020833,28.7317,-95.2428,0036,16.7000
1981-12-20 13:00:00 UTC,2444959.041667,28.7317,-95.2428,0036,16.7000
1981-12-20 13:30:00 UTC,2444959.062500,28.7317,-95.2428,0036,16.7000
1981-12-20 14:00:00 UTC,2444959.083333,28.7317,-95.2428,0036,16.7000
1981-12-20 14:30:00 UTC,2444959.104167,28.7317,-95.2428,0036,16.7000
1981-12-20 15:00:00 UTC,2444959.125000,28.7317,-95.2428,0036,16.7000
1981-12-20 15:30:00 UTC,2444959.145833,28.7317,-95.2428,0036,16.7000
1981-12-20 16:00:00 UTC,2444959.166667,28.7317,-95.2428,0036,16.7000
1981-12-20 16:30:00 UTC,2444959.187500,28.7317,-95.2428,0036,16.7000
1981-12-20 17:00:00 UTC,2444959.208333,28.7317,-95.2428,0036,16.7000
1981-12-20 17:30:00 UTC,2444959.229167,28.7317,-95.2428,0036,16.7000
1981-12-20 18:00:00 UTC,2444959.250000,28.7317,-95.2428,0036,16.7000
1981-12-20 18:30:00 UTC,2444959.270833,28.7317,-95.2428,0036,16.7000
1981-12-20 19:00:00 UTC,2444959.291667,28.7317,-95.2428,0036,16.7000
1981-12-20 19:30:00 UTC,2444959.312500,28.7317,-95.2428,0036,16.6000
1981-12-20 20:00:00 UTC,2444959.333333,28.7317,-95.2428,0036,16.6000
1981-12-20 20:30:00 UTC,2444959.354167,28.7317,-95.2428,0036,16.6000
1981-12-20 21:00:00 UTC,2444959.375000,28.7317,-95.2428,0036,16.6000
1981-12-20 21:30:00 UTC,2444959.395833,28.7317,-95.2428,0036,16.6000
1981-12-20 22:00:00 UTC,2444959.416667,28.7317,-95.2428,0036,16.6000
1981-12-20 22:30:00 UTC,2444959.437500,28.7317,-95.2428,0036,16.6000
1981-12-20 23:00:00 UTC,2444959.458333,28.7317,-95.2428,0036,16.6000
1981-12-20 23:30:00 UTC,2444959.479167,28.7317,-95.2428,0036,16.6000
1981-12-21 00:00:00 UTC,2444959.500000,28.7317,-95.2428,0036,16.6000
1981-12-21 00:30:00 UTC,2444959.520833,28.7317,-95.2428,0036,16.6000
1981-12-21 01:00:00 UTC,2444959.541667,28.7317,-95.2428,0036,16.6000
1981-12-21 01:30:00 UTC,2444959.562500,28.7317,-95.2428,0036,16.7000
1981-12-21 02:00:00 UTC,2444959.583333,28.7317,-95.2428,0036,16.7000
1981-12-21 02:30:00 UTC,2444959.604167,28.7317,-95.2428,0036,16.7000
1981-12-21 03:00:00 UTC,2444959.625000,28.7317,-95.2428,0036,16.7000
1981-12-21 03:30:00 UTC,2444959.645833,28.7317,-95.2428,0036,16.7000
1981-12-21 04:00:00 UTC,2444959.666667,28.7317,-95.2428,0036,16.7000
1981-12-21 04:30:00 UTC,2444959.687500,28.7317,-95.2428,0036,16.7000
1981-12-21 05:00:00 UTC,2444959.708333,28.7317,-95.2428,0036,16.7000
1981-12-21 05:30:00 UTC,2444959.729167,28.7317,-95.2428,0036,16.7000
1981-12-21 06:00:00 UTC,2444959.750000,28.7317,-95.2428,0036,16.6000
1981-12-21 06:30:00 UTC,2444959.770833,28.7317,-95.2428,0036,16.6000
1981-12-21 07:00:00 UTC,2444959.791667,28.7317,-95.2428,0036,16.6000
1981-12-21 07:30:00 UTC,2444959.812500,28.7317,-95.2428,0036,16.6000
1981-12-21 08:00:00 UTC,2444959.833333,28.7317,-95.2428,0036,16.6000
1981-12-21 08:30:00 UTC,2444959.854167,28.7317,-95.2428,0036,16.5000
1981-12-21 09:00:00 UTC,2444959.875000,28.7317,-95.2428,0036,16.5000
1981-12-21 09:30:00 UTC,2444959.895833,28.7317,-95.2428,0036,16.5000
1981-12-21 10:00:00 UTC,2444959.916667,28.7317,-95.2428,0036,16.5000
1981-12-21 10:30:00 UTC,2444959.937500,28.7317,-95.2428,0036,16.6000
1981-12-21 11:00:00 UTC,2444959.958333,28.7317,-95.2428,0036,16.6000
1981-12-21 11:30:00 UTC,2444959.979167,28.7317,-95.2428,0036,16.6000
1981-12-21 12:00:00 UTC,2444960.000000,28.7317,-95.2428,0036,16.6000
1981-12-21 12:30:00 UTC,2444960.020833,28.7317,-95.2428,0036,16.6000
1981-12-21 13:00:00 UTC,2444960.041667,28.7317,-95.2428,0036,16.5000
1981-12-21 13:30:00 UTC,2444960.062500,28.7317,-95.2428,0036,16.5000
1981-12-21 14:00:00 UTC,2444960.083333,28.7317,-95.2428,0036,16.5000
1981-12-21 14:30:00 UTC,2444960.104167,28.7317,-95.2428,0036,16.5000
1981-12-21 15:00:00 UTC,2444960.125000,28.7317,-95.2428,0036,16.5000
1981-12-21 15:30:00 UTC,2444960.145833,28.7317,-95.2428,0036,16.5000
1981-12-21 16:00:00 UTC,2444960.166667,28.7317,-95.2428,0036,16.5000
1981-12-21 16:30:00 UTC,2444960.187500,28.7317,-95.2428,0036,16.5000
1981-12-21 17:00:00 UTC,2444960.208333,28.7317,-95.2428,0036,16.5000
1981-12-21 17:30:00 UTC,2444960.229167,28.7317,-95.2428,0036,16.6000
1981-12-21 18:00:00 UTC,2444960.250000,28.7317,-95.2428,0036,16.6000
1981-12-21 18:30:00 UTC,2444960.270833,28.7317,-95.2428,0036,16.6000
1981-12-21 19:00:00 UTC,2444960.291667,28.7317,-95.2428,0036,16.6000
1981-12-21 19:30:00 UTC,2444960.312500,28.7317,-95.2428,0036,16.6000
1981-12-21 20:00:00 UTC,2444960.333333,28.7317,-95.2428,0036,16.6000
1981-12-21 20:30:00 UTC,2444960.354167,28.7317,-95.2428,0036,16.6000
1981-12-21 21:00:00 UTC,2444960.375000,28.7317,-95.2428,0036,16.6000
1981-12-21 21:30:00 UTC,2444960.395833,28.7317,-95.2428,0036,16.7000
1981-12-21 22:00:00 UTC,2444960.416667,28.7317,-95.2428,0036,16.7000
1981-12-21 22:30:00 UTC,2444960.437500,28.7317,-95.2428,0036,16.7000
1981-12-21 23:00:00 UTC,2444960.458333,28.7317,-95.2428,0036,16.7000
1981-12-21 23:30:00 UTC,2444960.479167,28.7317,-95.2428,0036,16.7000
1981-12-22 00:00:00 UTC,2444960.500000,28.7317,-95.2428,0036,16.7000
1981-12-22 00:30:00 UTC,2444960.520833,28.7317,-95.2428,0036,16.7000
1981-12-22 01:00:00 UTC,2444960.541667,28.7317,-95.2428,0036,16.7000
1981-12-22 01:30:00 UTC,2444960.562500,28.7317,-95.2428,0036,16.6000
1981-12-22 02:00:00 UTC,2444960.583333,28.7317,-95.2428,0036,16.6000
1981-12-22 02:30:00 UTC,2444960.604167,28.7317,-95.2428,0036,16.6000
1981-12-22 03:00:00 UTC,2444960.625000,28.7317,-95.2428,0036,16.6000
1981-12-22 03:30:00 UTC,2444960.645833,28.7317,-95.2428,0036,16.6000
1981-12-22 04:00:00 UTC,2444960.666667,28.7317,-95.2428,0036,16.6000
1981-12-22 04:30:00 UTC,2444960.687500,28.7317,-95.2428,0036,16.6000
1981-12-22 05:00:00 UTC,2444960.708333,28.7317,-95.2428,0036,16.6000
1981-12-22 05:30:00 UTC,2444960.729167,28.7317,-95.2428,0036,16.6000
1981-12-22 06:00:00 UTC,2444960.750000,28.7317,-95.2428,0036,16.6000
1981-12-22 06:30:00 UTC,2444960.770833,28.7317,-95.2428,0036,16.6000
1981-12-22 07:00:00 UTC,2444960.791667,28.7317,-95.2428,0036,16.6000
1981-12-22 07:30:00 UTC,2444960.812500,28.7317,-95.2428,0036,16.6000
1981-12-22 08:00:00 UTC,2444960.833333,28.7317,-95.2428,0036,16.6000
1981-12-22 08:30:00 UTC,2444960.854167,28.7317,-95.2428,0036,16.6000
1981-12-22 09:00:00 UTC,2444960.875000,28.7317,-95.2428,0036,16.6000
1981-12-22 09:30:00 UTC,2444960.895833,28.7317,-95.2428,0036,16.6000
1981-12-22 10:00:00 UTC,2444960.916667,28.7317,-95.2428,0036,16.6000
1981-12-22 10:30:00 UTC,2444960.937500,28.7317,-95.2428,0036,16.6000
1981-12-22 11:00:00 UTC,2444960.958333,28.7317,-95.2428,0036,16.6000
1981-12-22 11:30:00 UTC,2444960.979167,28.7317,-95.2428,0036,16.6000
1981-12-22 12:00:00 UTC,2444961.000000,28.7317,-95.2428,0036,16.6000
1981-12-22 12:30:00 UTC,2444961.020833,28.7317,-95.2428,0036,16.6000
1981-12-22 13:00:00 UTC,2444961.041667,28.7317,-95.2428,0036,16.6000
1981-12-22 13:30:00 UTC,2444961.062500,28.7317,-95.2428,0036,16.6000
1981-12-22 14:00:00 UTC,2444961.083333,28.7317,-95.2428,0036,16.6000
1981-12-22 14:30:00 UTC,2444961.104167,28.7317,-95.2428,0036,16.6000
1981-12-22 15:00:00 UTC,2444961.125000,28.7317,-95.2428,0036,16.6000
1981-12-22 15:30:00 UTC,2444961.145833,28.7317,-95.2428,0036,16.6000
1981-12-22 16:00:00 UTC,2444961.166667,28.7317,-95.2428,0036,16.6000
1981-12-22 16:30:00 UTC,2444961.187500,28.7317,-95.2428,0036,16.6000
1981-12-22 17:00:00 UTC,2444961.208333,28.7317,-95.2428,0036,16.6000
1981-12-22 17:30:00 UTC,2444961.229167,28.7317,-95.2428,0036,16.6000
1981-12-22 18:00:00 UTC,2444961.250000,28.7317,-95.2428,0036,16.6000
1981-12-22 18:30:00 UTC,2444961.270833,28.7317,-95.2428,0036,16.7000
1981-12-22 19:00:00 UTC,2444961.291667,28.7317,-95.2428,0036,16.7000
1981-12-22 19:30:00 UTC,2444961.312500,28.7317,-95.2428,0036,16.7000
1981-12-22 20:00:00 UTC,2444961.333333,28.7317,-95.2428,0036,16.7000
1981-12-22 20:30:00 UTC,2444961.354167,28.7317,-95.2428,0036,16.7000
1981-12-22 21:00:00 UTC,2444961.375000,28.7317,-95.2428,0036,16.7000
1981-12-22 21:30:00 UTC,2444961.395833,28.7317,-95.2428,0036,16.7000
1981-12-22 22:00:00 UTC,2444961.416667,28.7317,-95.2428,0036,16.7000
1981-12-22 22:30:00 UTC,2444961.437500,28.7317,-95.2428,0036,16.5000
1981-12-22 23:00:00 UTC,2444961.458333,28.7317,-95.2428,0036,16.4000
1981-12-22 23:30:00 UTC,2444961.479167,28.7317,-95.2428,0036,16.4000
1981-12-23 00:00:00 UTC,2444961.500000,28.7317,-95.2428,0036,16.3000
1981-12-23 00:30:00 UTC,2444961.520833,28.7317,-95.2428,0036,16.2000
1981-12-23 01:00:00 UTC,2444961.541667,28.7317,-95.2428,0036,16.1000
1981-12-23 01:30:00 UTC,2444961.562500,28.7317,-95.2428,0036,16.1000
1981-12-23 02:00:00 UTC,2444961.583333,28.7317,-95.2428,0036,16.1000
1981-12-23 02:30:00 UTC,2444961.604167,28.7317,-95.2428,0036,16.1000
1981-12-23 03:00:00 UTC,2444961.625000,28.7317,-95.2428,0036,16.1000
1981-12-23 03:30:00 UTC,2444961.645833,28.7317,-95.2428,0036,16.1000
1981-12-23 04:00:00 UTC,2444961.666667,28.7317,-95.2428,0036,16.1000
1981-12-23 04:30:00 UTC,2444961.687500,28.7317,-95.2428,0036,16.1000
1981-12-23 05:00:00 UTC,2444961.708333,28.7317,-95.2428,0036,16.1000
1981-12-23 05:30:00 UTC,2444961.729167,28.7317,-95.2428,0036,16.1000
1981-12-23 06:00:00 UTC,2444961.750000,28.7317,-95.2428,0036,16.1000
1981-12-23 06:30:00 UTC,2444961.770833,28.7317,-95.2428,0036,16.1000
1981-12-23 07:00:00 UTC,2444961.791667,28.7317,-95.2428,0036,16.2000
1981-12-23 07:30:00 UTC,2444961.812500,28.7317,-95.2428,0036,16.2000
1981-12-23 08:00:00 UTC,2444961.833333,28.7317,-95.2428,0036,16.3000
1981-12-23 08:30:00 UTC,2444961.854167,28.7317,-95.2428,0036,16.4000
1981-12-23 09:00:00 UTC,2444961.875000,28.7317,-95.2428,0036,16.4000
1981-12-23 09:30:00 UTC,2444961.895833,28.7317,-95.2428,0036,16.4000
1981-12-23 10:00:00 UTC,2444961.916667,28.7317,-95.2428,0036,16.4000
1981-12-23 10:30:00 UTC,2444961.937500,28.7317,-95.2428,0036,16.5000
1981-12-23 11:00:00 UTC,2444961.958333,28.7317,-95.2428,0036,16.5000
1981-12-23 11:30:00 UTC,2444961.979167,28.7317,-95.2428,0036,16.5000
1981-12-23 12:00:00 UTC,2444962.000000,28.7317,-95.2428,0036,16.5000
1981-12-23 12:30:00 UTC,2444962.020833,28.7317,-95.2428,0036,16.5000
1981-12-23 13:00:00 UTC,2444962.041667,28.7317,-95.2428,0036,16.5000
1981-12-23 13:30:00 UTC,2444962.062500,28.7317,-95.2428,0036,16.5000
1981-12-23 14:00:00 UTC,2444962.083333,28.7317,-95.2428,0036,16.5000
1981-12-23 14:30:00 UTC,2444962.104167,28.7317,-95.2428,0036,16.5000
1981-12-23 15:00:00 UTC,2444962.125000,28.7317,-95.2428,0036,16.5000
1981-12-23 15:30:00 UTC,2444962.145833,28.7317,-95.2428,0036,16.6000
1981-12-23 16:00:00 UTC,2444962.166667,28.7317,-95.2428,0036,16.6000
1981-12-23 16:30:00 UTC,2444962.187500,28.7317,-95.2428,0036,16.6000
1981-12-23 17:00:00 UTC,2444962.208333,28.7317,-95.2428,0036,16.6000
1981-12-23 17:30:00 UTC,2444962.229167,28.7317,-95.2428,0036,16.7000
1981-12-23 18:00:00 UTC,2444962.250000,28.7317,-95.2428,0036,16.8000
1981-12-23 18:30:00 UTC,2444962.270833,28.7317,-95.2428,0036,16.8000
1981-12-23 19:00:00 UTC,2444962.291667,28.7317,-95.2428,0036,16.8000
1981-12-23 19:30:00 UTC,2444962.312500,28.7317,-95.2428,0036,16.8000
1981-12-23 20:00:00 UTC,2444962.333333,28.7317,-95.2428,0036,16.8000
1981-12-23 20:30:00 UTC,2444962.354167,28.7317,-95.2428,0036,16.9000
1981-12-23 21:00:00 UTC,2444962.375000,28.7317,-95.2428,0036,16.9000
1981-12-23 21:30:00 UTC,2444962.395833,28.7317,-95.2428,0036,16.9000
1981-12-23 22:00:00 UTC,2444962.416667,28.7317,-95.2428,0036,17.0000
1981-12-23 22:30:00 UTC,2444962.437500,28.7317,-95.2428,0036,17.0000
1981-12-23 23:00:00 UTC,2444962.458333,28.7317,-95.2428,0036,17.0000